Station PDVR1 - 8454123 - Port of Davisville, RI Image indicating link to RSS feed of recent meteorological observations for station PDVR1


Conditions at PDVR1 as of
(3:00 am EDT)
0700 GMT on 05/21/2024:
     

Click on the graph icon in the table below to see a time series plot of the last five days of that observation.

5-day plot - Wind Speed Wind Speed (WSPD): 0 kts
5-day plot - Wind Gust Wind Gust (GST): 3 kts
5-day plot - Atmospheric Pressure Atmospheric Pressure (PRES):29.98 in
5-day plot - Pressure Tendency Pressure Tendency (PTDY):-0.04 in ( Falling )
5-day plot - Air Temperature Air Temperature (ATMP): 52.5 °F
5-day plot - Dew Point Dew Point (DEWP): 51.6 °F
5-day plot - Wind Speed at 10 Meters Wind Speed at 10 meters (WSPD10M): 0 kts
5-day plot - Wind Speed at 20 Meters Wind Speed at 20 meters (WSPD20M): 0 kts
5-day plot -  Wind Speed, Wind Gust and Atmospheric Pressure Combined plot of Wind Speed, Gust, and Air Pressure
NOS Water Level Observation Network Water Level
Previous observations
TIME
(EDT)
5-day plot - Wind Direction
WDIR
 
5-day plot - Wind Speed
WSPD
kts
5-day plot - Wind Gust
GST
kts
5-day plot - Wave Height
WVHT
ft
5-day plot - Dominant Wave Period
DPD
sec
5-day plot - Average Wave Period
APD
sec
5-day plot - Mean Wave Direction
MWD
 
5-day plot - Atmospheric Pressure
PRES
in
5-day plot - Pressure Tendency
PTDY
in
5-day plot - Air Temperature
ATMP
°F
5-day plot - Water Temperature
WTMP
°F
5-day plot - Dew Point
DEWP
°F
5-day plot - Salinity
SAL
psu
5-day plot - Visibility
VIS
nmi
5-day plot - Tide (above MLLW)
TIDE
ft
2024-05-21 02:54 amSSW 1 2----29.98- 52.5- 51.6---
2024-05-21 02:48 am SW 2 3----29.98- 52.3- 51.4---
2024-05-21 02:42 am- 0 2----29.98- 52.3- 51.4---
2024-05-21 02:36 amWSW 1 2----29.98- 52.3- 51.4---
2024-05-21 02:30 am SW 1 3----29.99- 52.5- 51.6---
2024-05-21 02:24 am- 0 3----29.99- 52.5- 51.6---
2024-05-21 02:18 am- 0 3----29.99- 52.3- 51.4---
2024-05-21 02:12 amSSW 2 4----29.99- 52.5- 51.6---
2024-05-21 02:06 amSSW 1 3----29.99- 52.3- 51.4---
2024-05-21 02:00 am S 2 3----29.99-0.03 52.3- 51.4---
2024-05-21 01:54 am SW 2 4----30.00- 52.5- 51.6---
2024-05-21 01:48 am- 0 5----30.01- 52.7- 51.8---
2024-05-21 01:42 am SW 1 3----30.00- 52.9- 52.0---
2024-05-21 01:36 am S 2 4----30.00- 53.1- 52.2---
2024-05-21 01:30 am S 4 5----30.00- 53.1- 52.2---
2024-05-21 01:24 am S 5 6----30.00- 53.1- 52.2---
2024-05-21 01:18 am S 5 7----30.00- 52.9- 52.0---
2024-05-21 01:12 am S 6 7----30.00- 52.9- 52.0---
2024-05-21 01:06 amSSE 7 8----30.00- 52.7- 51.8---
2024-05-21 01:00 amSSE 6 7----30.00-0.03 52.7- 51.8---
2024-05-21 12:54 amSSE 5 8----30.01- 52.9- 52.0---
2024-05-21 12:48 amSSE 5 7----30.01- 52.7- 51.6---
2024-05-21 12:42 amSSE 6 7----30.01- 52.9- 51.8---
2024-05-21 12:36 am S 6 7----30.01- 53.1- 52.0---
2024-05-21 12:30 am S 6 7----30.01- 53.2- 52.0---
2024-05-21 12:24 am S 6 7----30.01- 53.2- 52.0---
2024-05-21 12:18 am S 7 8----30.01- 53.1- 51.8---
2024-05-21 12:12 am S 8 9----30.02- 53.2- 51.8---
2024-05-21 12:06 am S 7 9----30.02- 53.2- 51.6---
2024-05-21 12:00 am S 6 8----30.02- 53.8- 52.2---
2024-05-20 11:54 pm S 6 8----30.02- 54.1- 52.5---
2024-05-20 11:48 pmSSE 6 8----30.02- 54.1- 52.3---
2024-05-20 11:42 pmSSW 4 6----30.02- 54.3- 52.5---
2024-05-20 11:36 pm S 5 7----30.03- 54.5- 52.7---
2024-05-20 11:30 pm S 5 7----30.03- 54.5- 52.7---
2024-05-20 11:24 pm S 6 6----30.03- 54.3- 52.5---
2024-05-20 11:18 pmSSW 3 6----30.03- 54.3- 52.5---
2024-05-20 11:12 pm S 5 9----30.03- 54.1- 52.3---
2024-05-20 11:06 pmSSW 4 8----30.03- 54.1- 52.2---
2024-05-20 11:00 pm S 5 8----30.02+0.03 54.7- 52.9---
2024-05-20 10:54 pmSSE 6 9----30.02- 54.5- 52.5---
2024-05-20 10:48 pmSSE 6 8----30.02- 54.5- 52.7---
2024-05-20 10:42 pmSSE 7 9----30.02- 54.5- 52.7---
2024-05-20 10:36 pmSSE 6 8----30.02- 54.5- 52.5---
2024-05-20 10:30 pmSSE 6 8----30.02- 54.7- 52.5---
2024-05-20 10:24 pm S 5 7----30.03- 54.9- 52.7---
2024-05-20 10:18 pm S 5 7----30.03- 55.0- 52.9---
2024-05-20 10:12 pm S 5 8----30.03- 55.0- 52.7---
2024-05-20 10:06 pm S 5 8----30.03- 55.2- 52.9---
2024-05-20 10:00 pmSSW 3 9----30.03+0.03 55.8- 53.6---
2024-05-20 09:54 pmSSE 8 10----30.03- 55.0- 52.9---
2024-05-20 09:48 pmSSE 8 9----30.03- 55.2- 53.2---
2024-05-20 09:42 pmSSE 9 10----30.02- 55.0- 52.9---
2024-05-20 09:36 pmSSE 8 10----30.02- 55.4- 53.2---
2024-05-20 09:30 pmSSE 10 11----30.02- 55.4- 53.1---
2024-05-20 09:24 pmSSE 8 11----30.01- 55.8- 53.4---
2024-05-20 09:18 pmSSE 9 10----30.01- 55.6- 53.1---
2024-05-20 09:12 pmSSE 9 11----30.01- 56.1- 53.4---
2024-05-20 09:06 pm S 9 11----30.01- 55.9- 53.2---
2024-05-20 09:00 pmSSE 10 11------ 55.8- 53.2---
2024-05-20 08:54 pmSSE 10 12------ 55.8- 53.2---
2024-05-20 08:48 pmSSE 10 12----30.00- 56.1- 53.8---
2024-05-20 08:42 pmSSE 10 11----30.00- 56.1- 53.8---
2024-05-20 08:36 pmSSE 10 12----30.00- 56.3- 54.1---
2024-05-20 08:30 pmSSE 10 11----30.00- 56.7- 54.3---
2024-05-20 08:24 pm S 11 12----29.99- 56.8- 54.5---
2024-05-20 08:18 pmSSE 10 12----29.99- 57.0- 54.3---
2024-05-20 08:12 pmSSE 10 12----29.99- 57.2- 54.1---
2024-05-20 08:06 pm S 11 12----29.99- 57.7- 54.3---
2024-05-20 08:00 pm S 11 12----29.99+0.00 58.1- 54.3---
2024-05-20 07:54 pm S 11 12----30.00- 58.5- 54.3---
2024-05-20 07:48 pm S 10 12----30.00- 58.5- 53.8---
2024-05-20 07:42 pm S 10 12----29.99- 59.0- 54.5---
2024-05-20 07:36 pm S 11 12----29.99- 59.0- 54.1---
2024-05-20 07:30 pm S 10 12----30.00- 59.2- 53.8---
2024-05-20 07:24 pm S 9 11----30.00- 59.9- 54.9---
2024-05-20 07:18 pm S 10 12----30.00- 59.9- 54.5---
2024-05-20 07:12 pm S 11 12----30.00- 60.1- 54.5---
2024-05-20 07:06 pm S 11 13----30.00- 60.1- 54.5---
2024-05-20 07:00 pm S 12 13----30.00-0.01------
2024-05-20 06:54 pm S 12 14----29.99-------
2024-05-20 06:48 pm S 12 14----30.00-------
2024-05-20 06:42 pm S 12 14----29.99-------
2024-05-20 06:36 pm S 12 15----29.99-------
2024-05-20 06:30 pm S 13 16----29.99- 59.9- 54.7---
2024-05-20 06:24 pm S 12 16----29.99- 60.1- 54.9---
2024-05-20 06:18 pm S 13 15----29.99- 60.4- 55.2---
2024-05-20 06:12 pm S 15 16----29.99- 60.3- 54.7---
2024-05-20 06:06 pm S 14 16----29.99- 61.2- 55.4---
2024-05-20 06:00 pm S 14 15----29.99-0.03 61.3- 55.2---
2024-05-20 05:54 pm S 13 14----29.99- 62.1- 55.6---
2024-05-20 05:48 pm S 12 14----29.99- 63.3- 56.1---
2024-05-20 05:42 pm S 12 13----29.99- 64.9- 56.1---
2024-05-20 05:36 pm S 8 10----29.99- 66.7- 56.7---
2024-05-20 05:30 pmSSE 4 5----29.99- 67.1- 55.2---
2024-05-20 05:24 pmSSE 3 3----29.99- 67.3- 56.3---
2024-05-20 05:18 pm SE 2 3----29.99- 66.9- 55.2---
2024-05-20 05:12 pm SE 2 4----29.99- 66.6- 55.6---
2024-05-20 05:06 pm SE 3 4----29.99- 65.5- 56.1---
2024-05-20 05:00 pm SE 4 5----29.99-0.03 64.4- 56.7---
2024-05-20 04:54 pmESE 5 6----29.99- 64.0- 57.0---
2024-05-20 04:48 pmESE 5 5----29.99- 64.2- 56.8---
2024-05-20 04:42 pm E 4 5----29.99- 65.1- 56.7---
2024-05-20 04:36 pm E 4 7----30.00- 64.6- 57.0---
2024-05-20 04:30 pm E 4 7----30.00-------
2024-05-20 04:24 pmESE 3 5----30.00-------
2024-05-20 04:18 pm E 5 6----30.00- 65.7- 56.1---
2024-05-20 04:12 pm E 4 5----30.01- 64.9- 56.5---
2024-05-20 04:06 pm E 3 5----30.01- 65.1- 57.0---
2024-05-20 04:00 pm E 3 4----30.01-0.03 64.8- 57.0---
2024-05-20 03:54 pmENE 4 5----30.01- 66.0- 56.5---
2024-05-20 03:48 pm E 4 4----30.01- 64.8- 56.3---
2024-05-20 03:42 pm E 3 3----30.01- 64.9- 56.1---
2024-05-20 03:36 pm E 3 4----30.01- 66.0- 56.1---
2024-05-20 03:30 pmENE 3 5----30.02- 65.5- 55.6---
2024-05-20 03:24 pmENE 5 6----30.01- 67.5- 56.1---
2024-05-20 03:18 pmENE 5 6----30.02- 68.0- 55.8---
2024-05-20 03:12 pmENE 5 7----30.02- 68.0- 56.3---
2024-05-20 03:06 pmENE 6 8----30.01- 68.2- 56.3---
2024-05-20 03:00 pmENE 5 7----30.01-0.03 68.7- 56.3---
2024-05-20 02:54 pmENE 5 7----30.02- 65.5- 56.5---
2024-05-20 02:48 pmENE 6 7----30.02- 64.0- 56.1---
2024-05-20 02:42 pmENE 6 7----30.02- 64.4- 56.1---
2024-05-20 02:36 pmENE 6 8----30.02- 66.9- 56.1---
2024-05-20 02:30 pmENE 6 8----30.02- 66.0- 56.3---
2024-05-20 02:24 pmENE 6 7----30.02- 64.0- 55.9---
2024-05-20 02:18 pmENE 7 8----30.02- 64.9- 55.6---
2024-05-20 02:12 pmENE 5 7----30.03- 64.8- 56.5---
2024-05-20 02:06 pmENE 6 8----30.03- 64.0- 55.8---
2024-05-20 02:00 pmENE 7 8----30.03-0.01 63.5- 55.8---
2024-05-20 01:54 pm E 6 7----30.02- 62.8- 56.1---
2024-05-20 01:48 pm E 6 7----30.02- 63.0- 56.3---
2024-05-20 01:42 pm E 6 7----30.03- 62.6- 55.8---
2024-05-20 01:36 pm E 6 7----30.03- 62.4- 55.2---
2024-05-20 01:30 pm E 7 7----30.03- 62.2- 55.2---
2024-05-20 01:24 pm E 6 7----30.03- 62.2- 55.6---
2024-05-20 01:18 pm E 6 7----30.03- 61.9- 55.2---
2024-05-20 01:12 pm E 6 6----30.04- 61.7- 54.7---
2024-05-20 01:06 pm E 5 5----30.04- 61.5- 54.7---
2024-05-20 01:00 pm E 4 5----30.04+0.00 61.5- 54.5---
2024-05-20 12:54 pm E 4 5----30.04- 61.2- 54.5---
2024-05-20 12:48 pm E 5 6----30.04- 60.8- 54.7---
2024-05-20 12:42 pm E 5 5----30.04- 60.6- 54.3---
2024-05-20 12:36 pm E 5 5----30.04- 60.6- 54.3---
2024-05-20 12:30 pm E 5 6----30.05- 60.6- 54.1---
2024-05-20 12:24 pm E 4 5----30.05- 60.4- 54.3---
2024-05-20 12:18 pm E 4 6----30.05- 60.3- 54.0---
2024-05-20 12:12 pm E 5 6----30.05- 59.9- 54.1---
2024-05-20 12:06 pm E 4 5----30.05- 59.9- 54.0---
2024-05-20 12:00 pmENE 5 6----30.05+0.00 60.3- 53.8---
2024-05-20 11:54 am E 4 5----30.05- 59.9- 54.0---
2024-05-20 11:48 am E 4 5----30.04- 59.4- 53.8---
2024-05-20 11:42 am E 5 7----30.04- 59.2- 53.6---
2024-05-20 11:36 am E 6 7----30.04- 59.9- 54.0---
2024-05-20 11:30 am NE 5 7----30.04- 64.2- 53.4---
2024-05-20 11:24 amNNE 5 7----30.05- 64.0- 53.4---
2024-05-20 11:18 am N 7 9----30.05- 61.5- 52.7---
2024-05-20 11:12 am N 6 8----30.05- 62.4- 52.9---
2024-05-20 11:06 amNNE 5 9----30.04- 63.1- 53.2---
2024-05-20 11:00 am N 6 9----30.04+0.00 62.1- 53.1---
2024-05-20 10:54 amNNE 6 9----30.03- 62.4- 52.9---
2024-05-20 10:48 amNNE 7 10----30.03- 61.7- 53.1---
2024-05-20 10:42 am N 8 10----30.03- 60.8- 52.7---
2024-05-20 10:36 amNNE 6 10----30.04- 61.7- 53.1---
2024-05-20 10:30 amNNE 7 10----30.04- 61.0- 53.1---
2024-05-20 10:24 amNNE 5 9----30.04- 61.0- 53.2---
2024-05-20 10:18 amNNE 6 10----30.04- 60.8- 52.9---
2024-05-20 10:12 amNNE 7 10----30.04- 60.8- 53.1---
2024-05-20 10:06 am NE 7 12----30.04- 60.4- 52.5---
2024-05-20 10:00 am NE 8 10----30.04+0.01 60.4- 52.7---
2024-05-20 09:54 amNNE 9 12----30.04- 59.9- 52.5---
2024-05-20 09:48 amNNE 7 11----30.04- 60.1- 52.9---
2024-05-20 09:42 amNNE 6 11----30.04- 59.9- 52.3---
2024-05-20 09:36 amNNE 7 10----30.05- 59.5- 52.3---
2024-05-20 09:30 amNNE 7 11----30.05- 58.8- 52.2---
2024-05-20 09:24 amNNE 8 12----30.05- 58.8- 52.2---
2024-05-20 09:18 amNNE 9 11----30.05- 58.6- 52.0---
2024-05-20 09:12 amNNE 7 12----30.04- 59.2- 52.2---
2024-05-20 09:06 am N 8 11----30.04- 58.6- 51.6---
2024-05-20 09:00 am N 8 13----30.04+0.02 57.9- 51.4---
2024-05-20 08:54 am N 9 13----30.04- 57.9- 51.1---
2024-05-20 08:48 am N 9 13----30.04- 57.7- 51.1---
2024-05-20 08:42 am N 10 13----30.05- 57.7- 51.1---
2024-05-20 08:36 am N 8 12----30.04- 57.6- 50.9---
2024-05-20 08:30 am N 8 12----30.04- 57.4- 51.1---
2024-05-20 08:24 am N 8 12----30.04- 57.0- 50.7---
2024-05-20 08:18 am N 9 12----30.03- 56.8- 50.5---
2024-05-20 08:12 am N 8 11----30.03- 56.7- 50.5---
2024-05-20 08:06 am N 9 12----30.04- 56.5- 50.5---
2024-05-20 08:00 am N 9 12----30.03+0.02 56.3- 50.4---
2024-05-20 07:54 am N 8 11----30.04- 55.9- 50.4---
2024-05-20 07:48 am N 9 12----30.04- 55.6- 50.0---
2024-05-20 07:42 am N 7 11----30.03- 55.8- 50.2---
2024-05-20 07:36 am N 7 11----30.03- 55.6- 50.4---
2024-05-20 07:30 am N 7 11----30.03- 55.6- 50.4---
2024-05-20 07:24 am N 9 11----30.03- 55.0- 49.8---
2024-05-20 07:18 am N 7 11----30.02- 55.0- 50.0---
2024-05-20 07:12 am N 9 12----30.02- 54.9- 50.0---
2024-05-20 07:06 am N 8 10----30.02- 54.7- 49.8---
2024-05-20 07:00 am N 8 11----30.02+0.01 54.7- 50.0---
2024-05-20 06:54 am N 9 12----30.02- 54.3- 49.8---
2024-05-20 06:48 am N 9 12----30.02- 54.3- 49.8---
2024-05-20 06:42 am N 9 11----30.02- 54.1- 49.6---
2024-05-20 06:36 am N 7 11----30.03- 54.1- 49.8---
2024-05-20 06:30 am N 8 11----30.03- 54.1- 50.0---
2024-05-20 06:24 am N 7 9----30.03- 54.1- 50.0---
2024-05-20 06:18 am N 8 10----30.03- 54.1- 50.0---
2024-05-20 06:12 am N 7 10----30.03- 54.0- 50.0---
2024-05-20 06:06 am N 7 10----30.02- 54.0- 50.0---
2024-05-20 06:00 am N 8 12----30.02+0.01 54.0- 50.0---
2024-05-20 05:54 am N 8 12----30.02- 54.0- 50.0---
2024-05-20 05:48 am N 7 10----30.02- 53.8- 49.8---
2024-05-20 05:42 am N 7 12----30.02- 54.0- 50.0---
2024-05-20 05:36 am N 7 10----30.02- 54.0- 50.2---
2024-05-20 05:30 am N 7 11----30.02- 54.0- 50.2---
2024-05-20 05:24 am N 8 11----30.02- 54.0- 50.2---
2024-05-20 05:18 am N 7 11----30.02- 54.0- 50.2---
2024-05-20 05:12 am N 8 10----30.02- 54.0- 50.2---
2024-05-20 05:06 am N 8 10----30.02- 54.0- 50.4---
2024-05-20 05:00 am N 8 10----30.02+0.00 54.0- 50.4---
2024-05-20 04:54 am N 8 11----30.01- 53.8- 50.4---
2024-05-20 04:48 am N 5 8----30.01- 54.0- 50.5---
2024-05-20 04:42 am N 6 10----30.01- 53.8- 50.4---
2024-05-20 04:36 am N 6 10----30.01- 53.6- 50.4---
2024-05-20 04:30 am N 5 10----30.01- 53.6- 50.5---
2024-05-20 04:24 am N 7 11----30.01- 53.4- 50.4---
2024-05-20 04:18 amNNW 6 8----30.01- 53.4- 50.4---
2024-05-20 04:12 amNNW 7 11----30.01- 53.4- 50.4---
2024-05-20 04:06 amNNW 7 12----30.01- 53.4- 50.4---
2024-05-20 04:00 amNNW 7 10----30.01-0.01 53.4- 50.4---
2024-05-20 03:54 amNNW 8 11----30.01- 53.4- 50.4---
2024-05-20 03:48 amNNW 6 9----30.01- 53.2- 50.0---
2024-05-20 03:42 amNNW 7 11----30.01- 53.2- 50.2---
2024-05-20 03:36 amNNW 6 10----30.01- 53.2- 50.2---
2024-05-20 03:30 amNNW 6 12----30.01- 53.2- 50.2---
2024-05-20 03:24 amNNW 8 12----30.01- 53.2- 50.2---
2024-05-20 03:18 amNNW 7 11----30.00- 53.2- 50.2---
2024-05-20 03:12 amNNW 8 11----30.01- 53.2- 50.2---
2024-05-20 03:06 am N 9 12----30.01- 53.2- 50.2---
2024-05-20 03:00 amNNW 8 11----30.01-0.02 53.2- 50.2---
2024-05-20 02:54 am N 8 11----30.01- 53.1- 50.2---